FW9262 Weather Reports


time (UTC)temp
C
wind
direction
speed
KPH
gust
KPH
rain 1hr
cm
rain 24hr
cm
rain mn
cm
humidity
%
barometer
mb
20260905022532 21 341 0.0 3.2 0.00 0.00 0.00 82 1014.6
20260905022028 21 329 1.6 1.6 0.00 0.00 0.00 82 1014.6
20260905021527 21 294 3.2 3.2 0.00 0.00 0.00 82 1014.9
20260905021023 21 301 4.8 6.4 0.00 0.00 0.00 81 1014.9
20260905020522 21 342 0.0 3.2 0.00 0.00 0.00 81 1014.9
20260905020018 21 268 3.2 4.8 0.00 0.00 0.00 81 1014.9
20260905015515 22 316 1.6 4.8 0.00 0.00 0.00 80 1014.9
20260905015016 22 297 1.6 6.4 0.00 0.00 0.00 80 1014.9
20260905014510 22 296 3.2 4.8 0.00 0.00 0.00 79 1014.9
20260905014006 22 265 4.8 6.4 0.00 0.00 0.00 78 1014.9
20260905013502 22 321 1.6 1.6 0.00 0.00 0.00 77 1014.9
20260905012957 22 333 3.2 3.2 0.00 0.00 0.00 76 1014.9
20260905012452 22 305 1.6 4.8 0.00 0.00 0.00 77 1015.3
20260905011949 22 279 3.2 6.4 0.00 0.00 0.00 77 1014.9
20260905011444 22 212 3.2 6.4 0.00 0.00 0.00 77 1015.3
20260905010940 22 283 3.2 9.7 0.00 0.00 0.00 77 1014.9
20260905010435 22 335 3.2 6.4 0.00 0.00 0.00 77 1014.9
20260905005930 22 210 3.2 9.7 0.00 0.00 0.00 77 1014.9
20260905005426 23 305 3.2 9.7 0.00 0.00 0.00 75 1015.3
20260905004926 23 247 3.2 9.7 0.00 0.00 0.00 74 1015.3
20260905004421 23 203 3.2 3.2 0.00 0.00 0.00 73 1015.3
20260905003917 23 268 3.2 9.7 0.00 0.00 0.00 73 1015.3
20260905003412 23 257 4.8 11.3 0.00 0.00 0.00 73 1015.3
20260905002908 23 310 0.0 6.4 0.00 0.00 0.00 74 1015.3
20260905002408 23 258 6.4 9.7 0.00 0.00 0.00 72 1015.3
20260905001907 24 152 4.8 6.4 0.00 0.00 0.00 70 1015.3
20260905001402 25 291 3.2 6.4 0.00 0.00 0.00 69 1015.3
20260905000857 25 294 3.2 6.4 0.00 0.00 0.00 68 1015.3
20260905000355 25 336 1.6 4.8 0.00 0.00 0.00 69 1014.9
20260904235848 25 297 3.2 9.7 0.00 0.00 0.00 70 1014.9
20260904235343 25 291 4.8 9.7 0.00 0.00 0.00 70 1014.9
20260904234838 25 275 3.2 6.4 0.00 0.00 0.00 69 1014.9
20260904234333 25 320 3.2 6.4 0.00 0.00 0.00 68 1014.9
20260904233829 25 200 1.6 4.8 0.00 0.00 0.00 68 1015.3
20260904233324 25 344 0.0 4.8 0.00 0.00 0.00 68 1015.3
20260904232821 25 296 6.4 11.3 0.00 0.00 0.00 69 1014.9
20260904232317 25 288 3.2 11.3 0.00 0.00 0.00 69 1014.9
20260904231813 26 290 4.8 4.8 0.00 0.00 0.00 66 1015.3
20260904231307 25 325 1.6 4.8 0.00 0.00 0.00 68 1014.9
20260904230803 25 203 6.4 11.3 0.00 0.00 0.00 67 1015.3
20260904230301 25 287 3.2 11.3 0.00 0.00 0.00 68 1015.3
20260904225756 25 263 1.6 11.3 0.00 0.00 0.00 67 1015.3
20260904225249 25 218 4.8 6.4 0.00 0.00 0.00 68 1015.3
20260904224749 25 336 3.2 9.7 0.00 0.00 0.00 69 1015.3
20260904224244 25 342 4.8 11.3 0.00 0.00 0.00 68 1015.3
20260904223743 25 253 3.2 4.8 0.00 0.00 0.00 69 1015.6
20260904223239 25 235 4.8 9.7 0.00 0.00 0.00 68 1015.6
20260904222735 25 213 4.8 6.4 0.00 0.00 0.00 68 1015.3
20260904222230 25 292 4.8 11.3 0.00 0.00 0.00 67 1015.3
20260904221729 25 233 3.2 6.4 0.00 0.00 0.00 68 1015.6
20260904221224 25 177 6.4 11.3 0.00 0.00 0.00 67 1015.6
20260904220725 25 303 1.6 6.4 0.00 0.00 0.00 67 1015.6
20260904220219 25 327 4.8 6.4 0.00 0.00 0.00 67 1015.6
20260904215719 25 245 3.2 9.7 0.00 0.00 0.00 67 1015.6
20260904215215 26 228 4.8 9.7 0.00 0.00 0.00 65 1015.6
20260904214710 25 243 4.8 6.4 0.00 0.00 0.00 66 1015.6
20260904214206 25 277 4.8 6.4 0.00 0.00 0.00 65 1015.3
20260904213703 25 285 4.8 9.7 0.00 0.00 0.00 65 1015.6
20260904213155 25 257 3.2 9.7 0.00 0.00 0.00 64 1015.6
20260904212655 25 240 4.8 11.3 0.00 0.00 0.00 65 1015.6
20260904212150 25 247 4.8 11.3 0.00 0.00 0.00 64 1016.0
20260904211644 25 247 4.8 6.4 0.00 0.00 0.00 64 1016.0
20260904211139 25 240 3.2 9.7 0.00 0.00 0.00 66 1016.0
20260904210639 25 300 6.4 11.3 0.00 0.00 0.00 66 1016.0
20260904210135 25 309 3.2 11.3 0.00 0.00 0.00 67 1015.6
20260904205631 25 351 6.4 6.4 0.00 0.00 0.00 65 1016.0
20260904205127 25 234 6.4 9.7 0.00 0.00 0.00 65 1016.0
20260904204622 25 327 3.2 12.9 0.00 0.00 0.00 67 1016.0
20260904204119 25 305 3.2 9.7 0.00 0.00 0.00 66 1015.6
20260904203614 26 301 1.6 6.4 0.00 0.00 0.00 66 1015.6
20260904203111 25 188 3.2 3.2 0.00 0.00 0.00 67 1016.0
20260904202606 25 246 4.8 6.4 0.00 0.00 0.00 67 1016.0
20260904202103 25 250 8.0 12.9 0.00 0.00 0.00 68 1016.0
20260904201602 25 235 6.4 11.3 0.00 0.00 0.00 67 1016.0
20260904201057 25 289 3.2 9.7 0.00 0.00 0.00 66 1016.0
20260904200556 25 301 6.4 12.9 0.00 0.00 0.00 67 1016.0
20260904200051 25 315 3.2 11.3 0.00 0.00 0.00 65 1016.0
20260904195550 25 330 1.6 11.3 0.00 0.00 0.00 66 1016.3
20260904195044 25 305 6.4 9.7 0.00 0.00 0.00 65 1016.0
20260904194538 26 272 4.8 12.9 0.00 0.00 0.00 64 1016.0
20260904194033 25 299 4.8 6.4 0.00 0.00 0.00 65 1016.0
20260904193528 25 229 3.2 11.3 0.00 0.00 0.00 66 1016.3
20260904193025 25 172 4.8 9.7 0.00 0.00 0.00 66 1016.3
20260904192524 25 281 1.6 3.2 0.00 0.00 0.00 65 1016.3
20260904192020 25 21 1.6 6.4 0.00 0.00 0.00 64 1016.3
20260904191516 25 283 1.6 9.7 0.00 0.00 0.00 64 1016.3
20260904191013 25 214 3.2 6.4 0.00 0.00 0.00 64 1016.6
20260904190508 26 293 1.6 3.2 0.00 0.00 0.00 63 1016.6
20260904190004 27 273 6.4 9.7 0.00 0.00 0.00 59 1016.6
20260904185500 26 315 4.8 6.4 0.00 0.00 0.00 63 1017.0
20260904184955 25 273 1.6 4.8 0.00 0.00 0.00 62 1016.6
20260904184454 26 262 6.4 9.7 0.00 0.00 0.00 59 1016.6
20260904183950 26 324 3.2 4.8 0.00 0.00 0.00 61 1016.6
20260904183445 26 251 6.4 9.7 0.00 0.00 0.00 59 1017.0
20260904182940 26 348 3.2 6.4 0.00 0.00 0.00 59 1017.0
20260904182436 27 318 0.0 3.2 0.00 0.00 0.00 60 1016.6
20260904181936 26 136 3.2 4.8 0.00 0.00 0.00 59 1016.6
20260904181431 25 341 1.6 4.8 0.00 0.00 0.00 63 1016.6
20260904180926 25 308 3.2 3.2 0.00 0.00 0.00 63 1017.0
20260904180421 25 210 1.6 4.8 0.00 0.00 0.00 63 1017.0
20260904175921 24 248 3.2 4.8 0.00 0.00 0.00 65 1017.0
20260904175419 24 282 1.6 6.4 0.00 0.00 0.00 66 1017.0
20260904174914 24 260 3.2 9.7 0.00 0.00 0.00 65 1017.0
20260904174409 24 211 1.6 4.8 0.00 0.00 0.00 67 1017.0
20260904173906 24 263 6.4 6.4 0.00 0.00 0.00 66 1017.0
20260904173401 23 329 3.2 4.8 0.00 0.00 0.00 69 1017.0
20260904172856 23 245 3.2 3.2 0.00 0.00 0.00 70 1016.6
20260904172356 23 274 3.2 4.8 0.00 0.00 0.00 70 1017.0
20260904171851 23 281 4.8 6.4 0.00 0.00 0.00 69 1016.6
20260904171346 25 267 1.6 9.7 0.00 0.00 0.00 68 1016.6
20260904170842 25 271 0.0 4.8 0.00 0.00 0.00 68 1016.6
20260904170338 25 260 3.2 9.7 0.00 0.00 0.00 67 1016.6
20260904165833 24 342 0.0 0.0 0.00 0.00 0.00 66 1016.6
20260904165331 23 345 0.0 1.6 0.00 0.00 0.00 69 1016.6
20260904164827 24 338 1.6 4.8 0.00 0.00 0.00 67 1016.3
20260904164321 24 295 1.6 3.2 0.00 0.00 0.00 66 1016.6
20260904163817 24 272 1.6 4.8 0.00 0.00 0.00 66 1016.6
20260904163312 24 86 3.2 4.8 0.00 0.00 0.00 64 1016.6
20260904162811 24 76 1.6 3.2 0.00 0.00 0.00 66 1016.3
20260904162307 23 4 1.6 3.2 0.00 0.00 0.00 66 1016.3
20260904161802 23 347 0.0 3.2 0.00 0.00 0.00 68 1016.3
20260904161302 22 11 0.0 3.2 0.00 0.00 0.00 73 1016.3
20260904160757 22 201 1.6 3.2 0.00 0.00 0.00 72 1016.3
20260904160252 22 351 0.0 0.0 0.00 0.00 0.00 73 1016.3
20260904155747 22 350 1.6 4.8 0.00 0.00 0.00 73 1016.3
20260904155247 23 1 1.6 3.2 0.00 0.00 0.00 72 1016.3
20260904154745 22 346 0.0 4.8 0.00 0.00 0.00 74 1016.3
20260904154240 23 340 1.6 3.2 0.00 0.00 0.00 72 1016.3
20260904153736 23 0 1.6 4.8 0.00 0.00 0.00 73 1016.0
20260904153231 23 67 3.2 3.2 0.00 0.00 0.00 72 1016.3
20260904152727 23 352 1.6 3.2 0.00 0.00 0.00 72 1016.3
20260904152222 22 1 1.6 4.8 0.00 0.00 0.00 75 1016.3
20260904151717 22 46 1.6 3.2 0.00 0.00 0.00 77 1016.3
20260904151216 22 48 0.0 1.6 0.00 0.00 0.00 76 1016.3
20260904150712 22 63 1.6 4.8 0.00 0.00 0.00 76 1016.3
20260904150207 22 12 0.0 3.2 0.00 0.00 0.00 76 1016.0
20260904145705 22 32 1.6 3.2 0.00 0.00 0.00 76 1016.3
20260904145201 22 345 0.0 1.6 0.00 0.00 0.00 77 1016.0
20260904144656 21 8 3.2 3.2 0.00 0.00 0.00 78 1016.0
20260904144152 21 356 0.0 0.0 0.00 0.00 0.00 80 1016.0
20260904143647 21 8 0.0 0.0 0.00 0.00 0.00 81 1016.0
20260904143144 20 358 0.0 0.0 0.00 0.00 0.00 81 1016.0
20260904142640 20 358 0.0 1.6 0.00 0.00 0.00 82 1016.0
20260904142136 20 347 0.0 1.6 0.00 0.00 0.00 84 1015.6
20260904141630 20 15 0.0 0.0 0.00 0.00 0.00 88 1015.6
20260904141126 19 349 0.0 0.0 0.00 0.00 0.00 90 1015.6
20260904140621 18 350 0.0 0.0 0.00 0.00 0.00 92 1015.6
20260904140121 18 358 0.0 0.0 0.00 0.00 0.00 92 1015.6
20260904135615 17 346 0.0 0.0 0.00 0.00 0.00 92 1015.6
20260904135111 17 344 0.0 0.0 0.00 0.00 0.00 92 1015.3
20260904134606 17 348 0.0 0.0 0.00 0.00 0.00 92 1015.3
20260904134100 17 345 0.0 0.0 0.00 0.00 0.00 92 1015.3
20260904133555 17 343 0.0 0.0 0.00 0.00 0.00 92 1015.3
20260904133051 17 343 0.0 0.0 0.00 0.00 0.00 92 1015.3
20260904132550 17 337 0.0 0.0 0.00 0.00 0.00 92 1014.9
20260904132045 17 338 0.0 0.0 0.00 0.00 0.00 92 1015.3
20260904131545 17 337 0.0 0.0 0.00 0.00 0.00 92 1015.3
20260904131041 17 0 0.0 1.6 0.00 0.00 0.00 92 1015.3
20260904130540 17 343 0.0 0.0 0.00 0.00 0.00 92 1014.9
20260904130035 17 342 0.0 0.0 0.00 0.00 0.00 92 1015.3
20260904125532 17 342 0.0 0.0 0.00 0.00 0.00 92 1015.3
20260904125026 17 334 0.0 0.0 0.00 0.00 0.00 92 1015.3
20260904124522 17 330 0.0 0.0 0.00 0.00 0.00 92 1015.3
20260904124017 17 334 0.0 0.0 0.00 0.00 0.00 92 1015.3
20260904123517 17 334 0.0 0.0 0.00 0.00 0.00 92 1014.9
20260904123013 17 338 0.0 0.0 0.00 0.00 0.00 92 1015.3
20260904122507 17 339 0.0 0.0 0.00 0.00 0.00 92 1014.9
20260904122002 17 339 0.0 0.0 0.00 0.00 0.00 92 1014.9
20260904121458 17 338 0.0 0.0 0.00 0.00 0.00 92 1014.9
20260904120954 17 341 0.0 0.0 0.00 0.00 0.00 92 1014.9
20260904120449 17 341 0.0 0.0 0.00 0.00 0.00 92 1014.9
20260904115944 17 342 0.0 0.0 0.00 0.00 0.00 92 1014.9
20260904115440 17 334 0.0 0.0 0.00 0.00 0.00 92 1015.3
20260904114934 17 340 0.0 0.0 0.00 0.00 0.00 92 1014.9
20260904114434 17 337 0.0 0.0 0.00 0.00 0.00 92 1014.9
20260904113930 17 344 0.0 0.0 0.00 0.00 0.00 92 1014.9
20260904113428 17 344 0.0 0.0 0.00 0.00 0.00 92 1015.3
20260904112928 17 342 0.0 0.0 0.00 0.00 0.00 92 1014.9
20260904112424 16 341 0.0 0.0 0.00 0.00 0.00 91 1014.9
20260904111920 16 341 0.0 0.0 0.00 0.00 0.00 91 1014.9
20260904111414 16 343 0.0 0.0 0.00 0.00 0.00 91 1014.9
20260904110911 16 344 0.0 0.0 0.00 0.00 0.00 91 1014.9
20260904110409 17 340 0.0 0.0 0.00 0.00 0.00 91 1014.9
20260904105905 17 337 0.0 0.0 0.00 0.00 0.00 91 1014.9
20260904105400 17 333 0.0 0.0 0.00 0.00 0.00 91 1014.9
20260904104855 17 330 0.0 0.0 0.00 0.00 0.00 91 1014.9
20260904104349 17 337 0.0 0.0 0.00 0.00 0.00 91 1015.3
20260904103846 17 343 0.0 1.6 0.00 0.00 0.00 91 1014.9
20260904103341 17 340 0.0 1.6 0.00 0.00 0.00 91 1014.9
20260904102837 17 339 0.0 0.0 0.00 0.00 0.00 91 1014.9
20260904102332 17 335 0.0 0.0 0.00 0.00 0.00 91 1014.9
20260904101828 17 340 0.0 0.0 0.00 0.00 0.00 91 1014.9
20260904101324 17 354 0.0 0.0 0.00 0.00 0.00 91 1014.9
20260904100820 17 344 0.0 0.0 0.00 0.00 0.00 91 1014.9
20260904100315 17 342 0.0 0.0 0.00 0.00 0.00 91 1015.3
20260904095810 17 344 0.0 1.6 0.00 0.00 0.00 91 1014.9
20260904095306 17 352 0.0 0.0 0.00 0.00 0.00 91 1014.9
20260904094800 17 348 0.0 0.0 0.00 0.00 0.00 91 1014.9
20260904094254 17 343 0.0 0.0 0.00 0.00 0.00 91 1014.9
20260904093750 17 342 0.0 0.0 0.00 0.00 0.00 91 1014.9
20260904093245 17 344 0.0 0.0 0.00 0.00 0.00 91 1014.9
20260904092740 17 340 0.0 0.0 0.00 0.00 0.00 91 1014.9
20260904092237 17 26 0.0 0.0 0.00 0.00 0.00 91 1014.9
20260904091733 17 340 0.0 0.0 0.00 0.00 0.00 91 1014.9
20260904091227 17 345 0.0 0.0 0.00 0.00 0.00 91 1014.9
20260904090723 17 343 0.0 0.0 0.00 0.00 0.00 90 1014.6
20260904090218 17 340 0.0 0.0 0.00 0.00 0.00 90 1014.9
20260904085713 17 336 0.0 1.6 0.00 0.00 0.00 90 1014.9
20260904085208 17 338 0.0 0.0 0.00 0.00 0.00 90 1014.9
20260904084703 17 336 0.0 0.0 0.00 0.00 0.00 90 1014.9
20260904084159 17 343 0.0 0.0 0.00 0.00 0.00 90 1014.9
20260904083655 17 341 0.0 0.0 0.00 0.00 0.00 90 1014.9
20260904083151 17 342 0.0 0.0 0.00 0.00 0.00 90 1014.9
20260904082646 17 344 0.0 0.0 0.00 0.00 0.00 90 1015.3
20260904082141 17 344 0.0 0.0 0.00 0.00 0.00 90 1014.9
20260904081637 17 336 0.0 0.0 0.00 0.00 0.00 90 1014.9
20260904081132 17 334 0.0 0.0 0.00 0.00 0.00 90 1014.9
20260904080627 18 343 0.0 0.0 0.00 0.00 0.00 90 1014.9
20260904080123 18 332 0.0 0.0 0.00 0.00 0.00 90 1014.9
20260904075620 18 337 0.0 0.0 0.00 0.00 0.00 90 1015.6
20260904075119 18 344 0.0 0.0 0.00 0.00 0.00 90 1015.6
20260904074618 18 344 0.0 0.0 0.00 0.00 0.00 89 1015.3
20260904074113 18 342 0.0 0.0 0.00 0.00 0.00 90 1015.3
20260904073608 18 347 0.0 0.0 0.00 0.00 0.00 90 1015.3
20260904073105 18 347 0.0 0.0 0.00 0.00 0.00 89 1015.3
20260904072600 18 350 0.0 0.0 0.00 0.00 0.00 89 1015.3
20260904072055 18 342 0.0 0.0 0.00 0.00 0.00 89 1015.3
20260904071551 18 348 0.0 0.0 0.00 0.00 0.00 89 1015.3
20260904071046 18 346 0.0 0.0 0.00 0.00 0.00 89 1015.3
20260904070544 18 350 0.0 0.0 0.00 0.00 0.00 89 1014.9
20260904070040 18 352 0.0 0.0 0.00 0.00 0.00 89 1014.9
20260904065534 18 352 0.0 0.0 0.00 0.00 0.00 89 1015.3
20260904065031 18 348 0.0 0.0 0.00 0.00 0.00 89 1015.3
20260904064527 18 344 0.0 0.0 0.00 0.00 0.00 89 1015.3
20260904064021 18 343 0.0 0.0 0.00 0.00 0.00 89 1014.9
20260904063518 18 343 0.0 0.0 0.00 0.00 0.00 89 1014.9
20260904063018 18 347 0.0 0.0 0.00 0.00 0.00 89 1014.9
20260904062514 18 346 0.0 0.0 0.00 0.00 0.00 88 1014.9
20260904062009 18 342 0.0 0.0 0.00 0.00 0.00 88 1014.9
20260904061505 18 348 0.0 0.0 0.00 0.00 0.00 88 1014.9
20260904061001 18 341 0.0 0.0 0.00 0.00 0.00 88 1014.9
20260904060457 18 345 0.0 0.0 0.00 0.00 0.00 88 1014.9
20260904055953 18 346 0.0 0.0 0.00 0.00 0.00 87 1014.9
20260904055448 18 347 0.0 0.0 0.00 0.00 0.00 87 1014.9
20260904054943 18 351 0.0 0.0 0.00 0.00 0.00 87 1014.9
20260904054439 19 343 0.0 0.0 0.00 0.00 0.00 87 1014.6
20260904053935 19 348 0.0 0.0 0.00 0.00 0.00 86 1014.9
20260904053434 19 347 0.0 0.0 0.00 0.00 0.00 86 1014.9
20260904052930 19 345 0.0 0.0 0.00 0.00 0.00 86 1014.9
20260904052426 19 339 0.0 0.0 0.00 0.00 0.00 85 1014.9
20260904051922 20 338 0.0 0.0 0.00 0.00 0.00 85 1014.9
20260904051418 20 340 0.0 0.0 0.00 0.00 0.00 85 1014.9
20260904050912 20 327 0.0 1.6 0.00 0.00 0.00 84 1015.3
20260904050409 20 328 0.0 1.6 0.00 0.00 0.00 84 1014.9
20260904045908 20 329 0.0 0.0 0.00 0.00 0.00 83 1014.9
20260904045404 20 333 0.0 0.0 0.00 0.00 0.00 83 1014.9
20260904044903 20 334 1.6 1.6 0.00 0.00 0.00 83 1014.9
20260904044400 20 334 0.0 1.6 0.00 0.00 0.00 82 1014.9
20260904043856 20 343 0.0 0.0 0.00 0.00 0.00 82 1014.9
20260904043352 20 339 0.0 1.6 0.00 0.00 0.00 81 1014.9
20260904042847 20 310 0.0 1.6 0.00 0.00 0.00 81 1014.9
20260904042343 20 331 0.0 1.6 0.00 0.00 0.00 81 1014.9
20260904041837 20 342 0.0 1.6 0.00 0.00 0.00 81 1014.9
20260904041334 20 340 0.0 1.6 0.00 0.00 0.00 81 1014.9
20260904040830 20 338 1.6 4.8 0.00 0.00 0.00 81 1014.6
20260904040325 20 300 1.6 1.6 0.00 0.00 0.00 81 1014.9
20260904035821 20 286 1.6 3.2 0.00 0.00 0.00 82 1014.9
20260904035317 20 284 1.6 3.2 0.00 0.00 0.00 83 1014.9
20260904034815 20 343 0.0 1.6 0.00 0.00 0.00 83 1014.6
20260904034311 20 339 0.0 1.6 0.00 0.00 0.00 83 1014.9
20260904033807 20 340 0.0 1.6 0.00 0.00 0.00 83 1014.6
20260904033303 20 271 1.6 1.6 0.00 0.00 0.00 83 1014.6
20260904032759 20 297 1.6 3.2 0.00 0.00 0.00 83 1014.6
20260904032258 20 319 0.0 1.6 0.00 0.00 0.00 83 1014.3
20260904031753 20 271 3.2 4.8 0.00 0.00 0.00 83 1014.6
20260904031248 20 231 3.2 4.8 0.00 0.00 0.00 83 1014.6
20260904030744 20 273 3.2 4.8 0.00 0.00 0.00 83 1014.3
20260904030239 20 295 3.2 4.8 0.00 0.00 0.00 83 1014.3
20260904025736 20 292 1.6 3.2 0.00 0.00 0.00 83 1014.3
20260904025230 20 311 1.6 3.2 0.00 0.00 0.00 82 1014.3
20260904024721 20 289 3.2 4.8 0.00 0.00 0.00 82 1014.3
20260904024215 20 265 3.2 4.8 0.00 0.00 0.00 82 1014.3
20260904023711 20 295 3.2 6.4 0.00 0.00 0.00 82 1014.3
20260904023208 20 324 1.6 3.2 0.00 0.00 0.00 82 1014.3